"datetime","temp","dp","rain_mm","uv","solar","mb","wind_mph","gust_mph","windchill","rh"
"2019-03-16 00:00:00",11.1,10.3,0.0,0.0,0,1009.5,1,2,"",95
"2019-03-16 00:01:00",11.1,10.3,0.0,0.0,0,1009.4,1,3,"",95
"2019-03-16 00:02:00",11.1,10.3,0.0,0.0,0,1009.4,2,4,"",95
"2019-03-16 00:03:00",11.1,10.3,0.0,0.0,0,1009.3,2,4,"",95
"2019-03-16 00:04:00",11.1,10.3,0.0,0.0,0,1009.3,2,4,"",95
"2019-03-16 00:05:00",11.1,10.3,0.0,0.0,0,1009.2,2,3,"",95
"2019-03-16 00:06:00",11.1,10.3,0.0,0.0,0,1009.2,1,3,"",95
"2019-03-16 00:07:00",11.1,10.3,0.0,0.0,0,1009.3,1,2,"",95
"2019-03-16 00:08:00",11.1,10.3,0.0,0.0,0,1009.3,3,5,"",95
"2019-03-16 00:09:00",11.1,10.3,0.0,0.0,0,1009.3,2,4,"",95
"2019-03-16 00:10:00",11.1,10.3,0.0,0.0,0,1009.2,1,4,"",95
"2019-03-16 00:11:00",11.1,10.3,0.0,0.0,0,1009.3,2,5,"",95
"2019-03-16 00:12:00",11.1,10.3,0.0,0.0,0,1009.2,1,2,"",95
"2019-03-16 00:13:00",11.1,10.3,0.0,0.0,0,1009.2,4,7,"",95
"2019-03-16 00:14:00",11.1,10.3,0.0,0.0,0,1009.3,2,5,"",95
"2019-03-16 00:15:00",11.1,10.3,0.0,0.0,0,1009.2,2,3,"",95
"2019-03-16 00:16:00",11.1,10.3,0.0,0.0,0,1009.2,2,4,"",95
"2019-03-16 00:17:00",11.1,10.3,0.0,0.0,0,1009.2,2,3,"",95
"2019-03-16 00:18:00",11.1,10.3,0.0,0.0,0,1009.2,1,4,"",95
"2019-03-16 00:19:00",11.1,10.3,0.0,0.0,0,1009.1,2,4,"",95
"2019-03-16 00:20:00",11.1,10.3,0.0,0.0,0,1009.2,3,5,"",95
"2019-03-16 00:21:00",11.1,10.3,0.0,0.0,0,1009.2,2,3,"",95
"2019-03-16 00:22:00",11.1,10.3,0.0,0.0,0,1009.2,2,6,"",95
"2019-03-16 00:23:00",11.1,10.3,0.0,0.0,0,1009.1,2,4,"",95
"2019-03-16 00:24:00",11.1,10.3,0.0,0.0,0,1009.2,1,3,"",95
"2019-03-16 00:25:00",11.1,10.3,0.0,0.0,0,1009.2,3,7,"",95
"2019-03-16 00:26:00",11.1,10.3,0.0,0.0,0,1009.2,1,2,"",95
"2019-03-16 00:27:00",11.1,10.3,0.0,0.0,0,1009.2,2,7,"",95
"2019-03-16 00:28:00",11.1,10.3,0.0,0.0,0,1009.2,1,6,"",95
"2019-03-16 00:29:00",11.1,10.3,0.0,0.0,0,1009.2,0,2,"",95
"2019-03-16 00:30:00",11.1,10.3,0.0,0.0,0,1009.2,2,5,"",95
"2019-03-16 00:31:00",11.1,10.3,0.0,0.0,0,1009.2,0,0,"",95
"2019-03-16 00:32:00",11.1,10.3,0.0,0.0,0,1009.2,0,0,"",95
"2019-03-16 00:33:00",11.1,10.3,0.0,0.0,0,1009.2,0,0,"",95
"2019-03-16 00:34:00",11.1,10.3,0.0,0.0,0,1009.2,0,0,"",95
"2019-03-16 00:35:00",11.1,10.3,0.0,0.0,0,1009.2,3,6,"",95
"2019-03-16 00:36:00",11.0,10.2,0.0,0.0,0,1009.1,1,3,"",95
"2019-03-16 00:37:00",11.1,10.3,0.0,0.0,0,1009.2,1,3,"",95
"2019-03-16 00:38:00",11.0,10.2,0.0,0.0,0,1009.2,1,2,"",95
"2019-03-16 00:39:00",11.1,10.3,0.0,0.0,0,1009.2,1,2,"",95
"2019-03-16 00:40:00",11.0,10.2,0.0,0.0,0,1009.1,2,4,"",95
"2019-03-16 00:41:00",11.1,10.3,0.0,0.0,0,1009.2,3,6,"",95
"2019-03-16 00:42:00",11.0,10.2,0.0,0.0,0,1009.1,1,2,"",95
"2019-03-16 00:43:00",11.0,10.2,0.0,0.0,0,1009.1,3,9,"",95
"2019-03-16 00:44:00",11.0,10.2,0.0,0.0,0,1009.2,3,7,"",95
"2019-03-16 00:45:00",11.0,10.2,0.0,0.0,0,1009.2,2,5,"",95
"2019-03-16 00:46:00",11.0,10.2,0.0,0.0,0,1009.2,1,5,"",95
"2019-03-16 00:47:00",11.0,10.2,0.0,0.0,0,1009.1,2,4,"",95
"2019-03-16 00:48:00",11.1,10.3,0.0,0.0,0,1009.2,1,3,"",95
"2019-03-16 00:49:00",11.0,10.2,0.0,0.0,0,1009.2,2,4,"",95
"2019-03-16 00:50:00",11.0,10.2,0.0,0.0,0,1009.2,0,2,"",95
"2019-03-16 00:51:00",11.0,10.2,0.0,0.0,0,1009.1,1,4,"",95
"2019-03-16 00:52:00",11.0,10.2,0.0,0.0,0,1009.1,1,3,"",95
"2019-03-16 00:53:00",11.0,10.2,0.0,0.0,0,1009.1,3,6,"",95
"2019-03-16 00:54:00",11.0,10.2,0.0,0.0,0,1009.2,2,6,"",95
"2019-03-16 00:55:00",11.0,10.2,0.0,0.0,0,1009.2,2,4,"",95
"2019-03-16 00:56:00",11.0,10.2,0.0,0.0,0,1009.2,0,2,"",95
"2019-03-16 00:57:00",11.0,10.2,0.0,0.0,0,1009.2,1,3,"",95
"2019-03-16 00:58:00",11.0,10.2,0.0,0.0,0,1009.2,3,4,"",95
"2019-03-16 00:59:00",11.0,10.2,0.0,0.0,0,1009.2,0,2,"",95
"2019-03-16 01:00:00",11.0,10.2,0.0,0.0,0,1009.2,1,2,"",95
"2019-03-16 01:01:00",11.0,10.2,0.0,0.0,0,1009.1,1,3,"",95
"2019-03-16 01:02:00",11.0,10.2,0.0,0.0,0,1009.1,2,4,"",95
"2019-03-16 01:03:00",11.0,10.2,0.0,0.0,0,1009.1,2,3,"",95
"2019-03-16 01:04:00",11.0,10.2,0.0,0.0,0,1009.1,2,6,"",95
"2019-03-16 01:05:00",11.0,10.2,0.0,0.0,0,1009.1,2,5,"",95
"2019-03-16 01:06:00",11.0,10.2,0.0,0.0,0,1009.1,1,3,"",95
"2019-03-16 01:07:00",11.0,10.2,0.0,0.0,0,1009.0,3,7,"",95
"2019-03-16 01:08:00",10.9,10.1,0.0,0.0,0,1009.0,1,4,"",95
"2019-03-16 01:09:00",10.9,10.1,0.0,0.0,0,1009.0,3,6,"",95
"2019-03-16 01:10:00",10.9,10.0,0.0,0.0,0,1009.0,2,5,"",94
"2019-03-16 01:11:00",10.9,10.0,0.0,0.0,0,1008.9,1,3,"",94
"2019-03-16 01:12:00",10.9,10.0,0.0,0.0,0,1008.8,2,3,"",94
"2019-03-16 01:13:00",10.9,10.0,0.0,0.0,0,1008.9,2,10,"",94
"2019-03-16 01:14:00",10.9,10.0,0.0,0.0,0,1008.9,5,10,"",94
"2019-03-16 01:15:00",10.9,10.0,0.0,0.0,0,1008.9,1,5,"",94
"2019-03-16 01:16:00",10.9,10.0,0.0,0.0,0,1008.9,4,10,"",94
"2019-03-16 01:17:00",10.9,10.0,0.0,0.0,0,1008.8,1,3,"",94
"2019-03-16 01:18:00",10.9,10.0,0.0,0.0,0,1008.9,1,3,"",94
"2019-03-16 01:19:00",10.9,10.0,0.0,0.0,0,1008.8,2,4,"",94
"2019-03-16 01:20:00",10.9,10.0,0.0,0.0,0,1008.8,2,6,"",94
"2019-03-16 01:21:00",10.9,10.0,0.0,0.0,0,1008.8,3,5,"",94
"2019-03-16 01:22:00",10.9,10.0,0.0,0.0,0,1008.8,2,8,"",94
"2019-03-16 01:23:00",10.9,10.0,0.0,0.0,0,1008.7,2,5,"",94
"2019-03-16 01:24:00",10.9,10.1,0.0,0.0,0,1008.8,3,5,"",95
"2019-03-16 01:25:00",10.9,10.0,0.0,0.0,0,1008.7,3,6,"",94
"2019-03-16 01:26:00",10.9,10.0,0.0,0.0,0,1008.7,3,8,"",94
"2019-03-16 01:27:00",10.9,10.0,0.0,0.0,0,1008.7,3,9,"",94
"2019-03-16 01:28:00",10.9,10.0,0.0,0.0,0,1008.7,4,7,"",94
"2019-03-16 01:29:00",10.9,10.0,0.0,0.0,0,1008.7,3,6,"",94
"2019-03-16 01:30:00",10.9,10.0,0.0,0.0,0,1008.6,1,3,"",94
"2019-03-16 01:31:00",10.9,10.0,0.0,0.0,0,1008.6,0,2,"",94
"2019-03-16 01:32:00",10.8,9.9,0.0,0.0,0,1008.7,2,4,"",94
"2019-03-16 01:33:00",10.9,10.0,0.0,0.0,0,1008.6,2,4,"",94
"2019-03-16 01:34:00",10.8,9.9,0.0,0.0,0,1008.6,1,2,"",94
"2019-03-16 01:35:00",10.9,10.0,0.0,0.0,0,1008.5,3,14,"",94
"2019-03-16 01:36:00",10.9,10.0,0.0,0.0,0,1008.5,3,9,"",94
"2019-03-16 01:37:00",10.8,9.9,0.0,0.0,0,1008.5,4,9,"",94
"2019-03-16 01:38:00",10.8,9.9,0.0,0.0,0,1008.4,1,2,"",94
"2019-03-16 01:39:00",10.8,9.9,0.0,0.0,0,1008.5,1,3,"",94
"2019-03-16 01:40:00",10.8,9.9,0.0,0.0,0,1008.5,4,7,"",94
"2019-03-16 01:41:00",10.8,9.9,0.0,0.0,0,1008.5,2,3,"",94
"2019-03-16 01:42:00",10.8,9.9,0.0,0.0,0,1008.4,2,4,"",94
"2019-03-16 01:43:00",10.8,9.9,0.0,0.0,0,1008.4,2,4,"",94
"2019-03-16 01:44:00",10.8,9.9,0.0,0.0,0,1008.4,2,9,"",94
"2019-03-16 01:45:00",10.8,9.9,0.0,0.0,0,1008.4,3,4,"",94
"2019-03-16 01:46:00",10.7,9.8,0.0,0.0,0,1008.4,5,11,"",94
"2019-03-16 01:47:00",10.7,9.6,0.0,0.0,0,1008.4,3,5,"",93
"2019-03-16 01:48:00",10.8,9.7,0.0,0.0,0,1008.3,1,3,"",93
"2019-03-16 01:49:00",10.7,9.6,0.0,0.0,0,1008.3,2,4,"",93
"2019-03-16 01:50:00",10.7,9.8,0.0,0.0,0,1008.3,1,3,"",94
"2019-03-16 01:51:00",10.7,9.8,0.0,0.0,0,1008.3,2,2,"",94
"2019-03-16 01:52:00",10.7,9.8,0.0,0.0,0,1008.2,2,4,"",94
"2019-03-16 01:53:00",10.7,9.8,0.0,0.0,0,1008.3,2,4,"",94
"2019-03-16 01:54:00",10.7,9.8,0.0,0.0,0,1008.3,2,7,"",94
"2019-03-16 01:55:00",10.7,9.6,0.0,0.0,0,1008.3,2,8,"",93
"2019-03-16 01:56:00",10.7,9.6,0.0,0.0,0,1008.3,2,3,"",93
"2019-03-16 01:57:00",10.7,9.6,0.0,0.0,0,1008.3,3,7,"",93
"2019-03-16 01:58:00",10.7,9.6,0.0,0.0,0,1008.3,1,3,"",93
"2019-03-16 01:59:00",10.7,9.6,0.0,0.0,0,1008.2,2,4,"",93
"2019-03-16 02:00:00",10.7,9.6,0.0,0.0,0,1008.2,2,5,"",93
"2019-03-16 02:01:00",10.7,9.6,0.0,0.0,0,1008.1,3,5,"",93
"2019-03-16 02:02:00",10.6,9.5,0.0,0.0,0,1008.1,3,4,"",93
"2019-03-16 02:03:00",10.6,9.5,0.0,0.0,0,1008.2,3,8,"",93
"2019-03-16 02:04:00",10.6,9.5,0.0,0.0,0,1008.2,0,2,"",93
"2019-03-16 02:05:00",10.6,9.5,0.0,0.0,0,1008.3,1,3,"",93
"2019-03-16 02:06:00",10.6,9.5,0.0,0.0,0,1008.3,2,4,"",93
"2019-03-16 02:07:00",10.6,9.5,0.0,0.0,0,1008.3,4,10,"",93
"2019-03-16 02:08:00",10.6,9.5,0.0,0.0,0,1008.3,2,3,"",93
"2019-03-16 02:09:00",10.6,9.5,0.0,0.0,0,1008.2,3,7,"",93
"2019-03-16 02:10:00",10.6,9.5,0.0,0.0,0,1008.2,3,5,"",93
"2019-03-16 02:11:00",10.6,9.5,0.0,0.0,0,1008.2,1,3,"",93
"2019-03-16 02:12:00",10.6,9.5,0.0,0.0,0,1008.3,2,3,"",93
"2019-03-16 02:13:00",10.6,9.5,0.0,0.0,0,1008.2,2,4,"",93
"2019-03-16 02:14:00",10.6,9.5,0.0,0.0,0,1008.2,1,3,"",93
"2019-03-16 02:15:00",10.6,9.5,0.0,0.0,0,1008.3,2,4,"",93
"2019-03-16 02:16:00",10.6,9.5,0.0,0.0,0,1008.3,3,5,"",93
"2019-03-16 02:17:00",10.5,9.4,0.0,0.0,0,1008.3,2,4,"",93
"2019-03-16 02:18:00",10.5,9.4,0.0,0.0,0,1008.3,1,3,"",93
"2019-03-16 02:19:00",10.5,9.4,0.0,0.0,0,1008.2,2,3,"",93
"2019-03-16 02:20:00",10.5,9.4,0.0,0.0,0,1008.2,2,4,"",93
"2019-03-16 02:21:00",10.5,9.4,0.0,0.0,0,1008.2,0,2,"",93
"2019-03-16 02:22:00",10.5,9.4,0.0,0.0,0,1008.1,1,3,"",93
"2019-03-16 02:23:00",10.4,9.3,0.0,0.0,0,1008.1,2,4,"",93
"2019-03-16 02:24:00",10.5,9.4,0.0,0.0,0,1008.1,2,5,"",93
"2019-03-16 02:25:00",10.5,9.4,0.0,0.0,0,1008.1,2,4,"",93
"2019-03-16 02:26:00",10.4,9.3,0.0,0.0,0,1008.1,2,4,"",93
"2019-03-16 02:27:00",10.4,9.3,0.0,0.0,0,1008.2,4,10,"",93
"2019-03-16 02:28:00",10.4,9.2,0.0,0.0,0,1008.1,3,5,"",92
"2019-03-16 02:29:00",10.4,9.2,0.0,0.0,0,1008.0,3,5,"",92
"2019-03-16 02:30:00",10.4,9.2,0.0,0.0,0,1008.0,4,7,"",92
"2019-03-16 02:31:00",10.4,9.2,0.0,0.0,0,1007.9,5,15,"",92
"2019-03-16 02:32:00",10.4,9.2,0.0,0.0,0,1007.9,1,3,"",92
"2019-03-16 02:33:00",10.4,9.2,0.0,0.0,0,1007.9,2,3,"",92
"2019-03-16 02:34:00",10.4,9.2,0.0,0.0,0,1007.9,0,1,"",92
"2019-03-16 02:35:00",10.4,9.2,0.0,0.0,0,1007.9,0,2,"",92
"2019-03-16 02:36:00",10.4,9.2,0.0,0.0,0,1008.0,3,6,"",92
"2019-03-16 02:37:00",10.4,9.2,0.0,0.0,0,1007.9,4,9,"",92
"2019-03-16 02:38:00",10.4,9.2,0.0,0.0,0,1007.9,4,8,"",92
"2019-03-16 02:39:00",10.4,9.2,0.0,0.0,0,1007.9,2,6,"",92
"2019-03-16 02:40:00",10.4,9.2,0.0,0.0,0,1007.8,2,4,"",92
"2019-03-16 02:41:00",10.4,9.2,0.0,0.0,0,1007.9,1,3,"",92
"2019-03-16 02:42:00",10.4,9.2,0.0,0.0,0,1007.9,2,5,"",92
"2019-03-16 02:43:00",10.4,9.2,0.0,0.0,0,1007.7,2,4,"",92
"2019-03-16 02:44:00",10.4,9.3,0.0,0.0,0,1007.8,1,4,"",93
"2019-03-16 02:45:00",10.4,9.3,0.0,0.0,0,1007.8,1,2,"",93
"2019-03-16 02:46:00",10.4,9.3,0.0,0.0,0,1007.7,2,10,"",93
"2019-03-16 02:47:00",10.4,9.3,0.0,0.0,0,1007.7,3,6,"",93
"2019-03-16 02:48:00",10.4,9.3,0.0,0.0,0,1007.7,2,3,"",93
"2019-03-16 02:49:00",10.4,9.3,0.0,0.0,0,1007.7,1,4,"",93
"2019-03-16 02:50:00",10.4,9.2,0.0,0.0,0,1007.7,1,2,"",92
"2019-03-16 02:51:00",10.4,9.3,0.0,0.0,0,1007.7,3,7,"",93
"2019-03-16 02:52:00",10.3,9.2,0.0,0.0,0,1007.7,2,4,"",93
"2019-03-16 02:53:00",10.4,9.3,0.0,0.0,0,1007.7,3,7,"",93
"2019-03-16 02:54:00",10.4,9.3,0.0,0.0,0,1007.6,2,6,"",93
"2019-03-16 02:55:00",10.3,9.2,0.0,0.0,0,1007.6,6,17,"",93
"2019-03-16 02:56:00",10.3,9.2,0.0,0.0,0,1007.7,3,6,"",93
"2019-03-16 02:57:00",10.3,9.2,0.0,0.0,0,1007.6,2,5,"",93
"2019-03-16 02:58:00",10.3,9.2,0.0,0.0,0,1007.6,3,7,"",93
"2019-03-16 02:59:00",10.3,9.2,0.0,0.0,0,1007.5,2,4,"",93
"2019-03-16 03:00:00",10.3,9.2,0.0,0.0,0,1007.5,2,5,"",93
"2019-03-16 03:01:00",10.3,9.2,0.0,0.0,0,1007.6,1,7,"",93
"2019-03-16 03:02:00",10.4,9.3,0.0,0.0,0,1007.5,2,4,"",93
"2019-03-16 03:03:00",10.3,9.2,0.0,0.0,0,1007.5,1,3,"",93
"2019-03-16 03:04:00",10.3,9.2,0.0,0.0,0,1007.5,1,3,"",93
"2019-03-16 03:05:00",10.3,9.2,0.2,0.0,0,1007.5,2,6,"",93
"2019-03-16 03:06:00",10.3,9.2,0.2,0.0,0,1007.5,0,2,"",93
"2019-03-16 03:07:00",10.3,9.2,0.2,0.0,0,1007.5,2,4,"",93
"2019-03-16 03:08:00",10.3,9.2,0.2,0.0,0,1007.6,2,4,"",93
"2019-03-16 03:09:00",10.3,9.2,0.2,0.0,0,1007.5,1,3,"",93
"2019-03-16 03:10:00",10.3,9.2,0.2,0.0,0,1007.5,1,3,"",93
"2019-03-16 03:11:00",10.3,9.2,0.2,0.0,0,1007.5,3,8,"",93
"2019-03-16 03:12:00",10.3,9.2,0.2,0.0,0,1007.5,1,3,"",93
"2019-03-16 03:13:00",10.3,9.2,0.2,0.0,0,1007.5,4,6,"",93
"2019-03-16 03:14:00",10.3,9.2,0.2,0.0,0,1007.5,2,3,"",93
"2019-03-16 03:15:00",10.3,9.2,0.2,0.0,0,1007.4,1,3,"",93
"2019-03-16 03:16:00",10.3,9.2,0.2,0.0,0,1007.3,3,5,"",93
"2019-03-16 03:17:00",10.3,9.2,0.2,0.0,0,1007.3,6,8,"",93
"2019-03-16 03:18:00",10.3,9.2,0.2,0.0,0,1007.3,3,7,"",93
"2019-03-16 03:19:00",10.3,9.2,0.2,0.0,0,1007.3,2,4,"",93
"2019-03-16 03:20:00",10.3,9.2,0.2,0.0,0,1007.3,4,8,"",93
"2019-03-16 03:21:00",10.3,9.2,0.2,0.0,0,1007.3,4,7,"",93
"2019-03-16 03:22:00",10.3,9.2,0.2,0.0,0,1007.3,2,8,"",93
"2019-03-16 03:23:00",10.3,9.2,0.2,0.0,0,1007.3,2,4,"",93
"2019-03-16 03:24:00",10.2,9.1,0.2,0.0,0,1007.3,1,2,"",93
"2019-03-16 03:25:00",10.3,9.2,0.2,0.0,0,1007.3,2,6,"",93
"2019-03-16 03:26:00",10.3,9.2,0.2,0.0,0,1007.3,2,4,"",93
"2019-03-16 03:27:00",10.3,9.2,0.2,0.0,0,1007.4,3,7,"",93
"2019-03-16 03:28:00",10.3,9.2,0.2,0.0,0,1007.3,3,6,"",93
"2019-03-16 03:29:00",10.2,9.1,0.2,0.0,0,1007.4,6,9,"",93
"2019-03-16 03:30:00",10.2,9.1,0.2,0.0,0,1007.4,2,3,"",93
"2019-03-16 03:31:00",10.3,9.2,0.2,0.0,0,1007.4,3,13,"",93
"2019-03-16 03:32:00",10.3,9.2,0.2,0.0,0,1007.3,3,6,"",93
"2019-03-16 03:33:00",10.3,9.2,0.2,0.0,0,1007.3,2,4,"",93
"2019-03-16 03:34:00",10.3,9.1,0.2,0.0,0,1007.3,4,6,"",92
"2019-03-16 03:35:00",10.3,9.2,0.2,0.0,0,1007.3,2,6,"",93
"2019-03-16 03:36:00",10.3,9.2,0.2,0.0,0,1007.2,2,5,"",93
"2019-03-16 03:37:00",10.3,9.2,0.2,0.0,0,1007.3,2,7,"",93
"2019-03-16 03:38:00",10.3,9.2,0.2,0.0,0,1007.3,3,9,"",93
"2019-03-16 03:39:00",10.2,9.1,0.2,0.0,0,1007.4,2,4,"",93
"2019-03-16 03:40:00",10.3,9.2,0.2,0.0,0,1007.3,1,5,"",93
"2019-03-16 03:41:00",10.3,9.2,0.2,0.0,0,1007.2,1,3,"",93
"2019-03-16 03:42:00",10.3,9.2,0.2,0.0,0,1007.2,1,3,"",93
"2019-03-16 03:43:00",10.3,9.2,0.2,0.0,0,1007.2,3,5,"",93
"2019-03-16 03:44:00",10.2,9.1,0.2,0.0,0,1007.2,2,8,"",93
"2019-03-16 03:45:00",10.3,9.2,0.2,0.0,0,1007.1,2,5,"",93
"2019-03-16 03:46:00",10.3,9.2,0.2,0.0,0,1007.2,1,3,"",93
"2019-03-16 03:47:00",10.2,9.1,0.2,0.0,0,1007.2,2,4,"",93
"2019-03-16 03:48:00",10.3,9.2,0.2,0.0,0,1007.2,3,5,"",93
"2019-03-16 03:49:00",10.3,9.1,0.2,0.0,0,1007.2,2,7,"",92
"2019-03-16 03:50:00",10.3,9.1,0.2,0.0,0,1007.2,1,3,"",92
"2019-03-16 03:51:00",10.3,9.1,0.2,0.0,0,1007.3,0,3,"",92
"2019-03-16 03:52:00",10.3,9.2,0.2,0.0,0,1007.3,3,8,"",93
"2019-03-16 03:53:00",10.3,9.1,0.2,0.0,0,1007.2,4,8,"",92
"2019-03-16 03:54:00",10.3,9.1,0.2,0.0,0,1007.1,2,5,"",92
"2019-03-16 03:55:00",10.3,9.1,0.2,0.0,0,1007.2,2,4,"",92
"2019-03-16 03:56:00",10.3,9.1,0.2,0.0,0,1007.1,2,4,"",92
"2019-03-16 03:57:00",10.3,9.1,0.2,0.0,0,1007.1,1,4,"",92
"2019-03-16 03:58:00",10.3,9.1,0.2,0.0,0,1007.1,2,9,"",92
"2019-03-16 03:59:00",10.3,9.1,0.2,0.0,0,1007.1,2,6,"",92
"2019-03-16 04:00:00",10.3,9.1,0.2,0.0,0,1007.1,2,5,"",92
"2019-03-16 04:01:00",10.3,9.1,0.2,0.0,0,1007.1,3,7,"",92
"2019-03-16 04:02:00",10.3,9.1,0.2,0.0,0,1007.1,3,8,"",92
"2019-03-16 04:03:00",10.3,9.1,0.2,0.0,0,1007.2,4,11,"",92
"2019-03-16 04:04:00",10.3,9.1,0.2,0.0,0,1007.2,0,1,"",92
"2019-03-16 04:05:00",10.3,9.1,0.2,0.0,0,1007.1,1,2,"",92
"2019-03-16 04:06:00",10.3,9.1,0.2,0.0,0,1007.2,2,5,"",92
"2019-03-16 04:07:00",10.3,9.1,0.2,0.0,0,1007.1,2,4,"",92
"2019-03-16 04:08:00",10.3,9.1,0.2,0.0,0,1007.1,5,14,"",92
"2019-03-16 04:09:00",10.3,9.1,0.2,0.0,0,1007.2,4,10,"",92
"2019-03-16 04:10:00",10.3,9.1,0.2,0.0,0,1007.1,2,3,"",92
"2019-03-16 04:11:00",10.3,9.1,0.2,0.0,0,1007.1,3,6,"",92
"2019-03-16 04:12:00",10.3,9.1,0.2,0.0,0,1007.2,3,5,"",92
"2019-03-16 04:13:00",10.3,9.1,0.2,0.0,0,1007.2,3,5,"",92
"2019-03-16 04:14:00",10.3,9.1,0.2,0.0,0,1007.1,1,5,"",92
"2019-03-16 04:15:00",10.3,9.1,0.2,0.0,0,1007.0,3,7,"",92
"2019-03-16 04:16:00",10.3,9.1,0.2,0.0,0,1007.0,2,4,"",92
"2019-03-16 04:17:00",10.3,9.1,0.2,0.0,0,1007.0,1,2,"",92
"2019-03-16 04:18:00",10.3,9.1,0.2,0.0,0,1007.0,2,3,"",92
"2019-03-16 04:19:00",10.3,9.1,0.2,0.0,0,1007.0,1,4,"",92
"2019-03-16 04:20:00",10.3,9.1,0.2,0.0,0,1007.0,2,6,"",92
"2019-03-16 04:21:00",10.3,9.1,0.2,0.0,0,1006.9,2,5,"",92
"2019-03-16 04:22:00",10.4,9.0,0.2,0.0,0,1006.8,2,8,"",91
"2019-03-16 04:23:00",10.4,9.2,0.2,0.0,0,1006.8,2,3,"",92
"2019-03-16 04:24:00",10.4,9.2,0.2,0.0,0,1006.9,2,5,"",92
"2019-03-16 04:25:00",10.4,9.2,0.2,0.0,0,1006.9,2,4,"",92
"2019-03-16 04:26:00",10.4,9.0,0.2,0.0,0,1006.8,3,5,"",91
"2019-03-16 04:27:00",10.4,9.0,0.2,0.0,0,1006.7,2,4,"",91
"2019-03-16 04:28:00",10.4,9.2,0.2,0.0,0,1006.8,4,11,"",92
"2019-03-16 04:29:00",10.4,9.0,0.2,0.0,0,1006.8,3,5,"",91
"2019-03-16 04:30:00",10.4,9.0,0.2,0.0,0,1006.8,2,4,"",91
"2019-03-16 04:31:00",10.4,9.0,0.2,0.0,0,1006.8,1,3,"",91
"2019-03-16 04:32:00",10.4,9.0,0.2,0.0,0,1006.8,3,5,"",91
"2019-03-16 04:33:00",10.4,9.0,0.2,0.0,0,1006.8,3,7,"",91
"2019-03-16 04:34:00",10.4,9.0,0.2,0.0,0,1006.7,1,7,"",91
"2019-03-16 04:35:00",10.4,9.0,0.2,0.0,0,1006.7,1,7,"",91
"2019-03-16 04:36:00",10.4,9.0,0.2,0.0,0,1006.7,1,2,"",91
"2019-03-16 04:37:00",10.4,9.0,0.2,0.0,0,1006.6,2,4,"",91
"2019-03-16 04:38:00",10.4,9.0,0.2,0.0,0,1006.6,2,6,"",91
"2019-03-16 04:39:00",10.4,9.0,0.2,0.0,0,1006.5,2,5,"",91
"2019-03-16 04:40:00",10.4,9.0,0.2,0.0,0,1006.4,2,4,"",91
"2019-03-16 04:41:00",10.4,9.0,0.2,0.0,0,1006.5,5,15,"",91
"2019-03-16 04:42:00",10.4,9.0,0.2,0.0,0,1006.5,1,4,"",91
"2019-03-16 04:43:00",10.4,9.0,0.2,0.0,0,1006.5,3,6,"",91
"2019-03-16 04:44:00",10.4,9.0,0.2,0.0,0,1006.3,3,5,"",91
"2019-03-16 04:45:00",10.4,9.0,0.2,0.0,0,1006.3,1,3,"",91
"2019-03-16 04:46:00",10.4,9.0,0.2,0.0,0,1006.4,1,3,"",91
"2019-03-16 04:47:00",10.4,9.0,0.2,0.0,0,1006.4,3,5,"",91
"2019-03-16 04:48:00",10.4,9.0,0.2,0.0,0,1006.3,1,6,"",91
"2019-03-16 04:49:00",10.4,9.0,0.2,0.0,0,1006.3,2,5,"",91
"2019-03-16 04:50:00",10.5,9.1,0.2,0.0,0,1006.3,1,4,"",91
"2019-03-16 04:51:00",10.5,9.1,0.2,0.0,0,1006.3,2,5,"",91
"2019-03-16 04:52:00",10.5,9.1,0.2,0.0,0,1006.3,1,2,"",91
"2019-03-16 04:53:00",10.4,9.0,0.2,0.0,0,1006.4,2,7,"",91
"2019-03-16 04:54:00",10.4,9.0,0.2,0.0,0,1006.2,4,11,"",91
"2019-03-16 04:55:00",10.4,9.0,0.2,0.0,0,1006.3,5,8,"",91
"2019-03-16 04:56:00",10.4,9.0,0.2,0.0,0,1006.2,2,5,"",91
"2019-03-16 04:57:00",10.5,9.1,0.2,0.0,0,1006.3,4,7,"",91
"2019-03-16 04:58:00",10.4,9.0,0.2,0.0,0,1006.2,4,11,"",91
"2019-03-16 04:59:00",10.5,9.1,0.2,0.0,0,1006.3,1,3,"",91
"2019-03-16 05:00:00",10.5,9.1,0.2,0.0,0,1006.3,3,9,"",91
"2019-03-16 05:01:00",10.5,8.9,0.2,0.0,0,1006.2,3,7,"",90
"2019-03-16 05:02:00",10.4,8.8,0.2,0.0,0,1006.4,2,4,"",90
"2019-03-16 05:03:00",10.5,9.1,0.2,0.0,0,1006.4,3,11,"",91
"2019-03-16 05:04:00",10.5,9.1,0.2,0.0,0,1006.3,5,17,"",91
"2019-03-16 05:05:00",10.5,8.9,0.2,0.0,0,1006.4,1,4,"",90
"2019-03-16 05:06:00",10.5,8.9,0.2,0.0,0,1006.3,1,5,"",90
"2019-03-16 05:07:00",10.5,9.1,0.2,0.0,0,1006.4,2,5,"",91
"2019-03-16 05:08:00",10.6,9.0,0.2,0.0,0,1006.4,1,2,"",90
"2019-03-16 05:09:00",10.5,8.9,0.2,0.0,0,1006.3,2,4,"",90
"2019-03-16 05:10:00",10.5,9.1,0.2,0.0,0,1006.4,3,7,"",91
"2019-03-16 05:11:00",10.6,9.0,0.2,0.0,0,1006.3,2,15,"",90
"2019-03-16 05:12:00",10.5,8.9,0.2,0.0,0,1006.3,2,8,"",90
"2019-03-16 05:13:00",10.5,8.9,0.2,0.0,0,1006.4,2,8,"",90
"2019-03-16 05:14:00",10.5,8.9,0.2,0.0,0,1006.3,4,12,"",90
"2019-03-16 05:15:00",10.5,8.9,0.2,0.0,0,1006.3,2,6,"",90
"2019-03-16 05:16:00",10.5,8.9,0.2,0.0,0,1006.3,4,12,"",90
"2019-03-16 05:17:00",10.5,8.9,0.2,0.0,0,1006.2,2,6,"",90
"2019-03-16 05:18:00",10.5,8.9,0.2,0.0,0,1006.2,1,5,"",90
"2019-03-16 05:19:00",10.5,8.9,0.2,0.0,0,1006.2,2,4,"",90
"2019-03-16 05:20:00",10.5,8.9,0.2,0.0,0,1006.2,2,5,"",90
"2019-03-16 05:21:00",10.5,8.9,0.2,0.0,0,1006.1,0,1,"",90
"2019-03-16 05:22:00",10.5,8.9,0.2,0.0,0,1006.2,0,2,"",90
"2019-03-16 05:23:00",10.6,9.0,0.2,0.0,0,1006.1,2,5,"",90
"2019-03-16 05:24:00",10.6,9.0,0.2,0.0,0,1006.1,1,3,"",90
"2019-03-16 05:25:00",10.5,8.9,0.2,0.0,0,1006.1,1,5,"",90
"2019-03-16 05:26:00",10.5,8.9,0.2,0.0,0,1006.2,0,1,"",90
"2019-03-16 05:27:00",10.6,9.0,0.2,0.0,0,1006.3,3,14,"",90
"2019-03-16 05:28:00",10.6,9.0,0.2,0.0,0,1006.1,1,2,"",90
"2019-03-16 05:29:00",10.6,9.0,0.2,0.0,0,1006.1,1,6,"",90
"2019-03-16 05:30:00",10.5,8.9,0.2,0.0,0,1006.1,2,5,"",90
"2019-03-16 05:31:00",10.6,9.0,0.2,0.0,0,1006.2,2,4,"",90
"2019-03-16 05:32:00",10.6,9.0,0.2,0.0,0,1006.1,2,4,"",90
"2019-03-16 05:33:00",10.5,8.9,0.2,0.0,0,1006.1,2,8,"",90
"2019-03-16 05:34:00",10.5,8.9,0.2,0.0,0,1006.2,1,3,"",90
"2019-03-16 05:35:00",10.6,9.0,0.2,0.0,0,1006.2,1,4,"",90
"2019-03-16 05:36:00",10.5,8.9,0.2,0.0,0,1006.1,3,7,"",90
"2019-03-16 05:37:00",10.6,9.0,0.2,0.0,0,1006.2,3,6,"",90
"2019-03-16 05:38:00",10.5,8.9,0.2,0.0,0,1006.2,1,4,"",90
"2019-03-16 05:39:00",10.6,9.0,0.2,0.0,0,1006.2,4,9,"",90
"2019-03-16 05:40:00",10.5,8.9,0.2,0.0,0,1006.2,0,3,"",90
"2019-03-16 05:41:00",10.6,9.0,0.2,0.0,0,1006.2,1,2,"",90
"2019-03-16 05:42:00",10.6,9.0,0.2,0.0,0,1006.2,0,1,"",90
"2019-03-16 05:43:00",10.5,8.9,0.2,0.0,0,1006.2,0,2,"",90
"2019-03-16 05:44:00",10.6,9.0,0.2,0.0,0,1006.1,1,5,"",90
"2019-03-16 05:45:00",10.6,9.0,0.2,0.0,0,1006.2,0,1,"",90
"2019-03-16 05:46:00",10.6,9.0,0.2,0.0,0,1006.2,1,3,"",90
"2019-03-16 05:47:00",10.6,9.0,0.2,0.0,0,1006.2,1,3,"",90
"2019-03-16 05:48:00",10.6,9.0,0.2,0.0,0,1006.1,1,3,"",90
"2019-03-16 05:49:00",10.6,9.0,0.2,0.0,0,1006.2,3,7,"",90
"2019-03-16 05:50:00",10.6,9.0,0.2,0.0,0,1006.1,1,4,"",90
"2019-03-16 05:51:00",10.6,9.0,0.2,0.0,0,1006.1,1,8,"",90
"2019-03-16 05:52:00",10.6,9.0,0.2,0.0,0,1006.1,0,0,"",90
"2019-03-16 05:53:00",10.5,8.9,0.2,0.0,0,1006.1,0,0,"",90
"2019-03-16 05:54:00",10.5,8.9,0.2,0.0,0,1006.1,1,6,"",90
"2019-03-16 05:55:00",10.5,8.9,0.2,0.0,0,1006.1,3,9,"",90
"2019-03-16 05:56:00",10.5,8.9,0.2,0.0,0,1006.0,0,1,"",90
"2019-03-16 05:57:00",10.5,8.9,0.2,0.0,0,1006.1,2,3,"",90
"2019-03-16 05:58:00",10.6,9.0,0.2,0.0,0,1006.0,0,1,"",90
"2019-03-16 05:59:00",10.5,8.8,0.2,0.0,0,1006.1,0,2,"",89
"2019-03-16 06:00:00",10.5,8.8,0.2,0.0,0,1006.0,2,9,"",89
"2019-03-16 06:01:00",10.5,8.8,0.2,0.0,0,1006.0,1,6,"",89
"2019-03-16 06:02:00",10.5,8.8,0.2,0.0,0,1005.9,1,3,"",89
"2019-03-16 06:03:00",10.6,8.9,0.2,0.0,0,1006.0,1,4,"",89
"2019-03-16 06:04:00",10.5,8.8,0.2,0.0,0,1006.0,2,5,"",89
"2019-03-16 06:05:00",10.5,8.8,0.2,0.0,0,1005.9,0,2,"",89
"2019-03-16 06:06:00",10.5,8.8,0.2,0.0,0,1005.9,1,3,"",89
"2019-03-16 06:07:00",10.5,8.8,0.2,0.0,0,1005.8,0,0,"",89
"2019-03-16 06:08:00",10.6,8.9,0.2,0.0,0,1005.8,2,6,"",89
"2019-03-16 06:09:00",10.5,8.8,0.2,0.0,0,1005.8,1,2,"",89
"2019-03-16 06:10:00",10.5,8.8,0.2,0.0,0,1005.7,2,9,"",89
"2019-03-16 06:11:00",10.5,8.8,0.2,0.0,0,1005.7,6,9,"",89
"2019-03-16 06:12:00",10.5,8.8,0.2,0.0,0,1005.8,3,11,"",89
"2019-03-16 06:13:00",10.5,8.8,0.2,0.0,0,1005.7,3,7,"",89
"2019-03-16 06:14:00",10.5,8.8,0.2,0.0,0,1005.7,3,11,"",89
"2019-03-16 06:15:00",10.5,8.8,0.2,0.0,0,1005.6,0,5,"",89
"2019-03-16 06:16:00",10.6,8.9,0.2,0.0,0,1005.8,1,3,"",89
"2019-03-16 06:17:00",10.5,8.8,0.2,0.0,0,1005.6,0,3,"",89
"2019-03-16 06:18:00",10.5,8.8,0.2,0.0,0,1005.7,2,6,"",89
"2019-03-16 06:19:00",10.5,8.8,0.2,0.0,0,1005.6,1,4,"",89
"2019-03-16 06:20:00",10.5,8.8,0.2,0.0,0,1005.6,3,6,"",89
"2019-03-16 06:21:00",10.6,8.9,0.2,0.0,0,1005.5,2,9,"",89
"2019-03-16 06:22:00",10.6,8.9,0.2,0.0,0,1005.5,1,3,"",89
"2019-03-16 06:23:00",10.6,8.9,0.2,0.0,0,1005.6,5,9,"",89
"2019-03-16 06:24:00",10.5,8.8,0.2,0.0,0,1005.5,4,6,"",89
"2019-03-16 06:25:00",10.6,8.9,0.2,0.0,0,1005.5,3,8,"",89
"2019-03-16 06:26:00",10.6,8.9,0.2,0.0,0,1005.5,2,4,"",89
"2019-03-16 06:27:00",10.6,8.9,0.2,0.0,0,1005.4,3,5,"",89
"2019-03-16 06:28:00",10.6,8.9,0.2,0.0,0,1005.3,2,6,"",89
"2019-03-16 06:29:00",10.6,8.9,0.2,0.0,0,1005.4,3,6,"",89
"2019-03-16 06:30:00",10.6,8.9,0.2,0.0,0,1005.4,1,2,"",89
"2019-03-16 06:31:00",10.6,8.9,0.2,0.0,0,1005.4,1,2,"",89
"2019-03-16 06:32:00",10.6,8.9,0.2,0.0,0,1005.4,4,12,"",89
"2019-03-16 06:33:00",10.6,8.9,0.2,0.0,0,1005.4,1,3,"",89
"2019-03-16 06:34:00",10.6,8.9,0.2,0.0,0,1005.4,0,1,"",89
"2019-03-16 06:35:00",10.6,8.9,0.2,0.0,0,1005.5,1,3,"",89
"2019-03-16 06:36:00",10.6,8.9,0.2,0.0,0,1005.4,3,6,"",89
"2019-03-16 06:37:00",10.6,8.9,0.2,0.0,0,1005.3,1,3,"",89
"2019-03-16 06:38:00",10.6,8.9,0.2,0.0,0,1005.3,3,9,"",89
"2019-03-16 06:39:00",10.6,8.9,0.2,0.0,0,1005.2,2,4,"",89
"2019-03-16 06:40:00",10.6,8.9,0.2,0.0,0,1005.3,0,2,"",89
"2019-03-16 06:41:00",10.5,8.8,0.2,0.0,5,1005.3,3,6,"",89
"2019-03-16 06:42:00",10.6,8.9,0.2,0.0,5,1005.3,1,2,"",89
"2019-03-16 06:43:00",10.6,8.9,0.2,0.0,0,1005.3,4,9,"",89
"2019-03-16 06:44:00",10.6,8.9,0.2,0.0,0,1005.3,2,7,"",89
"2019-03-16 06:45:00",10.6,8.9,0.2,0.0,0,1005.1,2,7,"",89
"2019-03-16 06:46:00",10.6,8.9,0.2,0.0,0,1005.2,4,10,"",89
"2019-03-16 06:47:00",10.6,8.9,0.2,0.0,5,1005.2,5,10,"",89
"2019-03-16 06:48:00",10.6,8.9,0.2,0.0,5,1005.3,2,5,"",89
"2019-03-16 06:49:00",10.6,8.9,0.2,0.0,5,1005.2,1,3,"",89